Weather History for Skagway, AK

Change the Weather History Date:

Saturday, October 5, 2013

  Actual Average Record
Temperature  
Mean Temperature 47 °F -  
Max Temperature 51 °F 48 °F 57 °F (1993)
Min Temperature 44 °F 39 °F 24 °F (1990)
Degree Days  
Heating Degree Days 18    
Moisture  
Dew Point 42 °F    
Average Humidity 83    
Maximum Humidity 93    
Minimum Humidity 71    
Precipitation  
Precipitation 0.01 in - - ()
Sea Level Pressure  
Sea Level Pressure 29.89 in    
Wind  
Wind Speed 4 mph (South)    
Max Wind Speed 21 mph    
Max Gust Speed 25 mph    
Visibility 10 miles    
Events Rain    
Averages and records for this station are not official NWS values.
T = Trace of Precipitation, MM = Missing Value Source: NWS Daily Summary

Daily Weather History Graph

Daily Weather History Graph

Search for Another Location

Airport:

Trip Planner

Search our weather history database for the weather conditions in past years. The results will help you decide how hot, cold, wet, or windy it might be!

Date:

Astronomy

Oct. 05, 2013 Rise Set
Actual Time 7:16 AM AKDT 6:21 PM AKDT
Civil Twilight 6:35 AM AKDT 7:01 PM AKDT
Nautical Twilight 5:48 AM AKDT 7:49 PM AKDT
Astronomical Twilight 4:58 AM AKDT 8:38 PM AKDT
Moon 8:25 AM AKDT (10/5) 6:19 PM AKDT (10/5)
Length of Visible Light 12h 25m
Length of Day
11h 04m
New Moon, 1% of the Moon is Illuminated
Oct 5
New Moon
Oct 11
First Quarter
Oct 18
Full
Oct 26
Last Quarter
Nov 3
New

Hourly Weather History & Observations

Time (AKDT) Temp. Windchill Dew Point Humidity Pressure Visibility Wind Dir Wind Speed Gust Speed Precip Events Conditions
12:30 AM 46.4 °F - 42.8 °F 87% 29.79 in 10.0 mi Calm Calm - N/A   Overcast
12:44 AM 46.4 °F 45.2 °F 42.8 °F 87% 29.78 in 10.0 mi NNE 3.5 mph - N/A   Overcast
12:53 AM 46.0 °F 44.8 °F 43.0 °F 89% 29.79 in 10.0 mi NE 3.5 mph - N/A   Overcast
1:08 AM 46.4 °F - 42.8 °F 87% 29.79 in 10.0 mi Calm Calm - 0.00 in   Overcast
1:40 AM 46.4 °F - 42.8 °F 87% 29.79 in 10.0 mi Calm Calm - 0.00 in   Overcast
1:53 AM 46.9 °F - 42.1 °F 83% 29.81 in 10.0 mi SSW 9.2 mph - 0.00 in   Overcast
2:53 AM 46.9 °F - 39.9 °F 77% 29.81 in 10.0 mi Variable 4.6 mph - N/A   Overcast
3:53 AM 46.0 °F 43.1 °F 41.0 °F 83% 29.83 in 10.0 mi WSW 5.8 mph - N/A   Overcast
4:53 AM 46.0 °F 44.8 °F 42.1 °F 86% 29.86 in 10.0 mi East 3.5 mph - N/A   Overcast
5:03 AM 44.6 °F 43.1 °F 42.8 °F 93% 29.86 in 10.0 mi NNE 3.5 mph - N/A   Overcast
5:10 AM 44.6 °F - 41.0 °F 87% 29.85 in 10.0 mi Calm Calm - N/A   Overcast
5:53 AM 45.0 °F - 42.1 °F 90% 29.88 in 10.0 mi Calm Calm - N/A   Overcast
6:53 AM 45.0 °F 42.6 °F 42.1 °F 90% 29.90 in 10.0 mi ENE 4.6 mph - N/A   Overcast
7:53 AM 45.0 °F 42.6 °F 42.1 °F 90% 29.91 in 10.0 mi NE 4.6 mph - N/A   Overcast
8:53 AM 46.0 °F 44.8 °F 43.0 °F 89% 29.94 in 10.0 mi NNE 3.5 mph - N/A   Overcast
9:09 AM 46.4 °F - 42.8 °F 87% 29.95 in 10.0 mi Calm Calm - N/A   Overcast
9:53 AM 48.0 °F - 44.1 °F 86% 29.96 in 10.0 mi SSW 5.8 mph - N/A   Overcast
10:53 AM 48.0 °F - 43.0 °F 83% 29.96 in 10.0 mi South 11.5 mph - N/A   Overcast
11:53 AM 48.9 °F - 43.0 °F 80% 29.97 in 10.0 mi SSW 19.6 mph 25.3 mph N/A   Overcast
12:53 PM 48.9 °F - 42.1 °F 77% 29.96 in 10.0 mi SSW 19.6 mph - N/A   Overcast
1:53 PM 50.0 °F - 41.0 °F 71% 29.95 in 10.0 mi SSW 20.7 mph 25.3 mph N/A   Overcast
2:53 PM 50.0 °F - 41.0 °F 71% 29.96 in 10.0 mi SSW 17.3 mph - N/A   Overcast
3:53 PM 50.0 °F - 41.0 °F 71% 29.94 in 10.0 mi SSW 16.1 mph 21.9 mph N/A   Overcast
4:53 PM 50.0 °F - 42.1 °F 74% 29.95 in 10.0 mi SSW 12.7 mph - N/A   Overcast
5:53 PM 50.0 °F - 42.1 °F 74% 29.94 in 10.0 mi SSW 10.4 mph - N/A   Overcast
6:53 PM 50.0 °F - 41.0 °F 71% 29.93 in 10.0 mi Calm Calm - N/A   Overcast
7:53 PM 48.0 °F - 42.1 °F 80% 29.93 in 10.0 mi Calm Calm - N/A   Overcast
8:49 PM 48.2 °F - 42.8 °F 82% 29.92 in 10.0 mi Calm Calm - N/A   Overcast
8:53 PM 46.9 °F - 43.0 °F 86% 29.92 in 10.0 mi Calm Calm - N/A   Overcast
9:53 PM 46.9 °F - 44.1 °F 90% 29.93 in 10.0 mi Calm Calm - 0.01 in Rain Light Rain
10:53 PM 46.0 °F - 43.0 °F 89% 29.92 in 10.0 mi Calm Calm - 0.00 in   Overcast
11:53 PM 46.0 °F - 44.1 °F 93% 29.91 in 10.0 mi Calm Calm - N/A   Overcast